カタログに戻る

STARLINK-37215

運用中通信SSO
NORAD 68392·PAYLOAD·🇺🇸 United States

打ち上げ Mar 26, 2026 から Vandenberg Space Force Base

Loading…

次のパス (今後24時間)

TLE

最新Source: CelesTrak SupGP

元期: Sep 14, 2026, 21:09 UTC

1 68392C 26063N   26257.88173611  .00032432  00000+0  10067-2 0  2578
2 68392  97.2857  38.8102 0001000 104.0761  13.5488 15.33426130    18

AllMySatでSTARLINK-37215をリアルタイム追跡

Download on the App Store